Temperature
8 9 8 8 8 8 8 9 9 10 11 12 13 13 12 12 11 11 11 10 10 10 10 10 11 11 11 12 12 12 12 12 12 12 13 13 13 13 12 12 12 12 12 11
7 8 8 8 8 8 9 9 9 10 10 12 12 12 11 11 11 11 10 10 10 10 10 10 10 11 11 11 11 11 12 12 12 12 12 12 12 12 12 12 12 11 11 11
7 8 7 7 8 9 9 9 9 9 11 11 11 11 11 11 10 10 9 9 9 9 9 9 10 10 10 10 11 11 11 11 11 11 11 11 11 11 11 11 11 11 11 10
6 6 5 9 10 10 9 10 10 10 10 10 10 10 10 10 9 9 9 9 8 8 9 9 9 9 9 10 10 10 10 10 11 10 10 11 11 10 10 10 10 10 10 10
5 6 7 9 9 9 8 9 10 10 10 10 9 9 9 9 8 8 8 8 8 8 8 8 8 8 9 9 9 9 9 10 10 10 10 10 10 10 10 10 10 10 9 9
5 5 6 9 9 9 8 8 9 9 9 9 9 8 9 8 7 7 7 7 7 7 7 7 7 8 8 8 8 9 9 9 9 9 9 9 9 9 9 9 9 9 8 8
5 5 7 9 8 8 7 8 8 8 8 7 8 8 7 7 6 6 6 6 6 6 6 6 7 7 7 7 7 8 8 8 8 8 8 8 8 8 8 8 8 8 8 8
5 5 6 8 7 7 8 8 7 7 7 6 6 6 6 6 5 5 5 5 5 5 6 6 6 6 6 7 7 7 7 7 7 7 7 7 7 7 7 7 7 7 7 7
6 7 9 7 7 7 7 7 6 6 6 5 5 5 5 5 5 5 5 4 5 5 5 5 5 5 5 6 6 6 6 6 6 6 6 6 6 6 6 6 6 6 6 6
6 7 8 7 6 6 6 6 6 5 5 5 5 5 4 4 4 4 4 4 4 4 4 4 5 5 4 5 5 5 5 5 5 5 5 6 6 6 5 5 5 5 5 5
5 7 7 6 6 6 5 5 5 4 4 4 4 4 3 3 3 3 3 3 3 3 3 3 4 4 4 4 4 4 4 4 4 4 4 4 5 5 4 5 5 5 5 5
5 6 6 6 6 5 5 4 4 4 4 3 3 3 3 3 3 2 2 2 2 2 3 3 3 3 3 3 3 3 3 3 3 3 3 3 3 3 3 4 4 4 4 4
5 5 5 5 4 4 4 3 3 3 3 2 2 2 2 2 2 2 2 2 2 1 2 2 2 2 2 2 2 2 2 2 2 2 2 3 3 3 3 3 3 3 3 3
4 3 3 3 3 3 2 2 2 2 2 1 1 1 1 1 1 1 1 1 1 1 1 1 1 1 1 1 1 2 2 2 2 2 2 2 2 2 2 2 2 2 2 2
2 2 2 2 2 2 1 1 1 1 1 1 1 1 0 0 0 0 0 -0 -0 -0 -0 -0 -0 0 0 1 1 1 1 1 1 1 1 1 1 1 1 1 1 1 1 1
1 1 1 1 0 -0 -0 -1 -1 -1 -1 -1 -1 -1 -1 -1 -1 -1 -1 -1 -1 -1 -1 -1 -1 -1 -0 -0 0 0 0 0 0 0 0 0 0 0 0 0 -0 -0 -0 -0
-1 -1 -1 -1 -1 -1 -2 -2 -2 -2 -2 -2 -2 -1 -1 -1 -1 -1 -1 -2 -2 -2 -2 -2 -2 -1 -1 -1 -1 -0 -0 -0 -0 -0 -0 -0 -0 -1 -1 -1 -1 -1 -1 -1
-2 -2 -2 -3 -3 -3 -3 -3 -2 -2 -2 -2 -2 -2 -2 -2 -2 -2 -2 -2 -2 -3 -3 -3 -2 -2 -2 -2 -1 -1 -1 -1 -1 -1 -1 -1 -1 -1 -1 -1 -1 -2 -2 -2
-3 -3 -3 -3 -3 -3 -3 -3 -3 -3 -3 -3 -3 -3 -3 -3 -3 -3 -3 -3 -3 -3 -3 -3 -3 -3 -2 -2 -2 -2 -2 -2 -2 -2 -2 -2 -2 -2 -2 -2 -2 -2 -2 -2
-3 -4 -4 -4 -4 -4 -4 -4 -4 -4 -4 -4 -4 -4 -4 -4 -4 -4 -4 -4 -4 -4 -4 -4 -4 -3 -3 -3 -3 -3 -3 -2 -3 -3 -3 -3 -3 -3 -3 -2 -2 -2 -2 -2
-4 -4 -4 -4 -4 -4 -5 -5 -5 -5 -5 -5 -5 -5 -4 -4 -5 -5 -5 -5 -4 -4 -5 -4 -4 -4 -4 -4 -4 -3 -3 -3 -3 -3 -3 -3 -3 -3 -3 -3 -3 -3 -3 -3
-5 -5 -5 -5 -5 -5 -5 -5 -5 -5 -5 -5 -5 -5 -5 -5 -5 -5 -5 -6 -5 -5 -5 -5 -5 -5 -4 -4 -4 -4 -4 -4 -4 -4 -4 -4 -4 -4 -4 -4 -4 -3 -4 -4
-5 -5 -6 -6 -6 -6 -6 -6 -6 -6 -6 -6 -6 -6 -6 -6 -6 -6 -6 -6 -6 -6 -6 -5 -5 -5 -5 -5 -5 -5 -5 -5 -5 -5 -5 -5 -4 -4 -4 -4 -4 -4 -4 -4
-6 -6 -6 -7 -7 -7 -7 -7 -7 -7 -7 -7 -6 -6 -7 -7 -7 -7 -7 -7 -7 -6 -6 -6 -6 -6 -5 -5 -6 -5 -5 -5 -5 -5 -5 -5 -5 -5 -5 -5 -5 -4 -4 -4
-6 -7 -7 -7 -7 -7 -7 -7 -7 -7 -7 -7 -7 -7 -7 -7 -7 -7 -7 -7 -7 -7 -7 -7 -6 -6 -6 -6 -6 -6 -6 -6 -6 -5 -5 -5 -5 -5 -5 -5 -5 -5 -5 -5
-7 -7 -8 -8 -8 -8 -8 -8 -8 -8 -8 -8 -8 -8 -8 -8 -8 -8 -8 -7 -7 -7 -7 -7 -7 -7 -7 -7 -6 -6 -6 -6 -6 -6 -6 -6 -6 -6 -6 -6 -5 -5 -5 -5
-8 -8 -8 -8 -8 -8 -8 -9 -9 -9 -9 -9 -9 -8 -8 -8 -8 -8 -8 -8 -8 -8 -8 -8 -7 -7 -7 -7 -7 -7 -7 -6 -6 -7 -6 -6 -6 -6 -6 -6 -6 -6 -6 -6
Wind_Speed
18 18 16 18 18 17 19 20 20 24 26 25 22 20 19 17 16 15 14 13 11 11 11 10 9 8 8 8 7 6 6 7 8 9 9 10 11 12 13 14 15 15 15 15
17 17 18 21 22 23 23 23 26 27 29 24 21 19 18 17 15 14 14 12 12 11 12 11 10 9 8 8 7 6 7 7 7 7 8 9 10 10 11 12 13 13 14 14
14 15 15 18 20 22 21 20 21 24 25 20 19 17 17 16 14 13 13 12 12 12 11 11 11 10 9 9 8 6 7 7 7 7 8 8 8 9 10 11 12 13 13 13
9 9 15 12 7 13 18 20 20 21 20 18 18 17 16 14 13 13 12 12 12 11 11 11 11 10 9 8 7 6 6 7 6 6 7 7 8 9 9 9 9 10 11 12
7 11 16 15 10 8 11 16 15 17 18 17 16 14 14 11 10 11 11 11 11 11 12 11 10 10 9 8 7 7 7 7 6 6 6 7 8 8 8 8 8 9 9 10
10 11 12 10 4 5 8 13 9 11 13 12 10 11 10 8 9 11 11 10 11 11 11 10 9 8 8 8 7 7 7 7 6 6 6 7 7 7 6 7 7 7 7 9
17 14 13 9 4 4 8 8 3 4 7 8 9 10 10 10 10 11 12 12 11 10 10 9 9 7 7 7 8 8 7 6 6 6 6 6 5 5 5 5 6 6 7 7
12 14 13 5 5 7 8 6 5 7 8 8 10 11 11 12 12 12 12 12 11 10 9 9 8 7 7 7 8 7 6 6 5 5 4 4 4 4 5 5 5 6 6 6
10 12 9 6 9 9 8 10 10 10 10 10 11 13 14 14 13 12 12 11 9 8 9 8 7 6 7 8 7 6 6 6 5 5 4 4 4 4 4 5 5 5 5 6
14 16 17 14 13 12 11 12 12 11 12 12 14 14 14 13 12 11 10 9 8 8 8 8 8 7 6 7 6 6 6 6 5 5 4 3 3 3 4 4 5 5 5 5
19 20 18 17 16 15 14 13 13 13 13 13 13 13 13 11 11 10 9 8 7 8 8 8 8 7 6 6 6 6 6 5 5 5 4 4 3 3 4 4 5 5 5 5
18 17 15 16 14 14 15 15 14 14 13 12 11 12 12 11 10 9 8 8 8 8 8 8 8 7 7 6 5 5 5 5 4 4 4 3 3 3 2 3 3 4 4 5
22 21 19 19 17 15 14 14 13 13 13 13 12 11 10 10 9 8 8 8 8 8 8 8 8 8 7 6 5 5 5 5 4 4 4 3 3 2 2 1 0 2 3 3
17 16 17 17 15 13 13 12 11 11 11 10 10 9 8 9 8 8 8 8 7 7 8 8 8 8 7 6 5 5 5 4 4 4 4 3 3 2 2 2 1 1 1 4
15 14 15 13 12 11 10 9 9 9 9 8 7 7 7 8 8 7 7 7 7 7 7 7 7 8 8 6 6 6 5 4 4 3 3 3 3 2 2 2 1 1 1 2
10 10 11 11 11 10 8 8 8 9 8 8 7 7 7 7 7 7 6 6 6 6 7 7 7 8 7 7 6 5 4 5 4 3 3 2 2 2 2 1 2 2 2 2
8 9 9 9 9 8 8 7 8 8 7 7 7 6 6 6 6 6 5 5 5 6 6 6 7 7 7 7 6 4 4 4 4 3 3 2 2 2 2 1 2 2 2 2
6 7 6 7 7 8 7 7 6 6 6 7 6 6 6 6 6 6 6 5 5 6 6 6 6 7 7 6 5 4 4 3 3 3 2 2 2 1 1 1 2 2 2 2
3 4 5 5 5 5 6 6 6 6 6 6 6 6 6 6 6 6 5 5 6 6 6 6 7 6 6 6 6 4 3 3 3 2 2 2 2 1 1 2 2 2 2 2
2 2 3 3 4 4 4 5 5 5 5 5 5 5 5 6 5 5 5 5 5 5 6 6 6 5 6 6 6 3 3 3 2 2 1 1 1 1 1 1 2 2 2 3
2 2 2 3 3 4 4 4 4 5 5 4 4 5 5 5 4 4 4 5 5 5 5 6 5 4 4 4 4 3 2 2 2 1 1 1 1 1 1 1 2 2 2 2
2 2 2 3 3 4 4 4 4 5 5 4 4 4 4 4 4 4 4 4 4 5 5 4 4 4 5 5 3 2 2 2 1 1 1 1 1 1 1 2 2 2 2 2
2 2 3 3 3 4 4 4 4 4 4 4 4 4 4 3 3 3 4 4 4 5 4 3 4 6 6 4 2 2 2 2 1 1 0 0 1 1 1 2 2 2 2 2
2 3 3 3 3 3 4 5 4 4 4 4 4 4 3 3 3 3 3 4 5 5 4 4 5 5 5 2 2 2 2 1 1 1 0 0 0 1 1 2 2 2 2 3
2 3 3 3 3 3 4 4 4 3 3 3 4 3 2 2 3 3 3 3 4 5 4 4 5 5 3 2 2 2 1 1 1 0 0 0 0 1 1 2 2 2 2 3
2 3 3 3 3 3 3 3 3 3 3 3 3 3 2 2 2 2 2 3 4 4 3 3 3 3 2 2 2 2 1 1 1 1 0 0 0 1 1 2 2 2 2 2
2 3 3 3 3 3 3 3 3 3 3 3 3 3 3 3 3 2 3 2 3 2 2 2 2 2 2 2 2 1 1 1 1 1 0 0 0 1 1 2 2 2 2 3
Wind_Direction
262 271 272 266 263 257 250 251 258 267 269 274 280 287 292 295 298 301 302 306 311 314 314 315 313 313 312 306 299 289 275 265 257 253 249 244 238 233 227 220 217 215 214 213
266 266 267 268 263 257 255 255 257 264 268 273 281 284 284 286 289 292 297 302 305 309 311 311 309 308 307 304 299 289 278 271 271 264 253 244 240 235 228 224 217 214 214 213
268 274 276 264 254 251 249 247 252 258 265 276 281 281 282 285 288 290 291 297 301 305 308 309 307 304 301 299 298 288 282 278 272 262 254 249 243 235 228 225 221 216 215 215
269 268 253 261 258 247 251 256 256 259 265 271 275 281 283 283 285 288 291 295 299 303 307 309 308 304 301 299 295 289 284 282 278 268 256 250 242 236 231 225 222 219 217 216
248 256 266 268 257 241 248 262 264 264 266 271 280 282 278 279 287 290 293 297 299 301 303 305 307 308 306 301 296 293 291 289 285 275 263 250 241 238 232 224 223 223 218 214
239 250 258 270 258 243 249 264 268 264 269 275 279 277 284 303 300 294 296 298 301 305 306 306 308 310 306 302 299 294 293 291 287 277 264 254 245 240 234 224 223 222 223 218
238 248 260 271 249 202 236 272 306 270 275 276 275 277 293 304 300 298 299 302 304 305 305 306 310 308 302 301 299 301 303 299 295 286 272 262 251 241 227 217 217 219 221 221
231 242 254 232 192 220 257 288 289 287 286 284 283 289 292 297 300 302 303 304 305 304 305 310 313 308 302 303 307 309 306 300 298 295 287 271 254 240 220 208 212 217 215 218
229 245 270 238 234 253 269 276 283 285 288 289 287 288 292 294 298 301 303 304 305 304 305 307 313 310 303 308 313 311 307 302 299 298 290 269 250 235 217 208 212 217 214 215
255 259 263 263 263 267 269 269 277 280 287 289 286 287 291 293 296 301 304 304 304 305 304 306 314 314 307 310 313 310 306 303 300 297 296 285 261 235 219 215 214 216 219 218
256 264 271 264 261 265 267 269 274 280 282 280 281 284 289 292 295 299 300 301 302 302 301 303 311 312 313 312 310 308 305 304 307 305 296 292 279 261 243 236 230 224 221 214
258 264 267 273 273 272 272 271 273 278 280 277 276 279 283 284 290 293 294 298 299 301 302 305 308 309 313 312 307 303 302 304 306 303 296 291 291 299 292 254 250 246 240 227
259 269 272 275 275 275 273 274 276 276 276 278 280 278 278 280 287 290 291 294 295 298 301 302 305 307 312 312 305 298 294 295 297 294 289 290 285 278 290 307 216 192 197 193
263 268 270 270 273 276 277 278 278 277 276 277 279 279 277 279 283 286 289 295 298 298 300 301 305 308 314 315 307 301 297 292 288 286 282 282 273 265 259 246 247 262 173 160
263 262 264 273 277 280 282 282 281 279 280 280 281 280 280 282 284 287 291 297 297 298 302 307 310 312 320 316 308 306 300 292 291 287 281 279 274 262 254 242 219 196 120 141
270 269 267 268 273 278 280 277 275 279 283 285 286 286 286 284 285 288 293 297 294 296 303 307 307 310 316 312 308 305 299 297 296 288 282 280 272 255 242 225 203 189 182 159
263 265 268 270 272 276 277 275 275 279 283 284 284 288 288 288 289 290 296 299 294 294 297 299 303 309 309 306 303 300 299 297 296 291 282 280 278 262 237 217 207 190 185 162
261 266 270 273 274 276 279 280 279 279 282 288 290 286 283 282 284 290 296 301 297 295 296 301 304 307 307 304 303 298 296 293 291 290 291 291 291 272 231 199 190 181 163 152
273 275 279 281 281 277 278 281 285 287 288 288 284 280 279 279 282 287 293 293 290 294 303 308 309 309 309 312 311 298 293 291 292 294 293 289 291 257 208 188 181 177 160 149
295 292 290 295 299 293 289 294 298 296 293 290 285 283 284 286 290 290 291 288 288 295 305 310 313 314 313 312 311 298 289 284 284 288 289 277 269 244 201 179 172 168 158 154
317 316 316 316 317 316 309 304 301 299 300 293 281 278 282 288 292 292 291 291 303 312 310 311 313 312 312 315 311 301 295 290 289 285 273 264 253 215 175 164 161 160 153 147
328 326 324 322 320 319 319 316 308 302 301 297 291 285 285 290 294 295 293 293 305 315 316 311 311 315 324 324 314 309 305 299 293 287 269 245 218 187 168 162 157 150 145 146
322 318 316 316 314 314 317 316 310 302 297 295 291 287 286 291 292 291 301 311 312 314 317 312 320 327 332 332 323 321 325 321 309 292 255 223 213 189 168 159 156 150 148 150
317 319 319 319 317 315 316 319 316 308 302 298 296 292 289 292 300 303 304 313 323 324 322 323 331 339 345 344 335 334 337 338 335 331 315 205 200 172 158 151 150 148 148 148
313 315 315 313 311 310 313 318 321 320 318 316 315 312 301 294 295 304 310 313 322 328 325 330 341 349 349 347 355 354 349 351 353 340 338 198 184 151 148 152 156 154 155 153
305 304 301 298 298 302 307 309 314 315 315 316 320 324 324 321 314 312 314 320 324 329 331 331 339 347 351 358 7 3 355 352 356 0 26 8 152 151 149 145 146 157 156 148
305 307 306 307 308 309 309 306 302 303 304 304 311 318 323 324 321 326 329 329 332 335 338 341 341 343 350 359 7 3 359 358 352 349 353 8 157 152 150 146 154 151 145 143
Height
1441 1439 1438 1436 1434 1433 1432 1426 1422 1408 1403 1396 1397 1397 1397 1395 1393 1391 1389 1387 1385 1383 1381 1379 1376 1374 1373 1371 1370 1369 1368 1367 1367 1368 1369 1369 1370 1371 1373 1375 1376 1379 1381 1384
1438 1435 1433 1430 1425 1423 1420 1417 1412 1406 1398 1394 1395 1394 1393 1391 1389 1387 1386 1384 1382 1380 1378 1375 1373 1371 1369 1367 1366 1364 1363 1363 1362 1362 1362 1363 1364 1365 1366 1368 1369 1372 1374 1376
1432 1428 1428 1421 1411 1410 1407 1403 1403 1399 1391 1390 1390 1389 1388 1387 1386 1384 1382 1381 1379 1377 1374 1372 1370 1367 1365 1363 1361 1360 1359 1358 1357 1357 1357 1357 1358 1359 1360 1361 1363 1364 1366 1368
1432 1430 1426 1401 1398 1398 1397 1394 1394 1391 1387 1388 1387 1385 1384 1383 1382 1380 1379 1377 1375 1372 1370 1368 1365 1363 1361 1359 1357 1355 1354 1353 1352 1352 1351 1351 1352 1352 1353 1354 1355 1357 1359 1361
1430 1421 1404 1395 1394 1396 1395 1389 1388 1386 1384 1383 1383 1381 1378 1379 1378 1377 1375 1373 1371 1368 1365 1363 1361 1358 1356 1354 1352 1350 1349 1348 1347 1346 1346 1346 1346 1346 1347 1348 1349 1351 1352 1354
1424 1418 1402 1386 1389 1390 1392 1386 1383 1382 1381 1380 1380 1377 1374 1375 1374 1372 1370 1368 1366 1363 1360 1358 1356 1354 1351 1349 1348 1346 1344 1343 1342 1341 1340 1340 1340 1340 1340 1341 1342 1344 1346 1348
1415 1409 1392 1386 1388 1389 1390 1381 1381 1380 1379 1378 1377 1376 1374 1372 1370 1368 1365 1363 1360 1358 1355 1353 1351 1349 1347 1345 1343 1342 1340 1339 1338 1336 1335 1335 1335 1335 1335 1335 1337 1338 1340 1342
1405 1401 1390 1383 1385 1384 1379 1378 1378 1378 1377 1375 1374 1372 1370 1368 1366 1363 1360 1358 1355 1353 1350 1348 1346 1344 1342 1340 1339 1337 1336 1334 1333 1332 1330 1330 1330 1330 1330 1330 1331 1333 1334 1336
1388 1382 1377 1379 1378 1377 1377 1377 1376 1375 1374 1372 1370 1368 1366 1364 1361 1358 1356 1353 1351 1348 1346 1344 1342 1340 1338 1336 1335 1333 1331 1330 1328 1327 1326 1326 1326 1325 1325 1326 1327 1327 1329 1330
1381 1375 1375 1375 1374 1374 1374 1373 1371 1371 1369 1368 1366 1363 1361 1359 1356 1353 1351 1348 1346 1344 1341 1339 1337 1336 1334 1332 1331 1329 1327 1325 1324 1323 1322 1321 1321 1321 1321 1321 1322 1322 1324 1325
1373 1370 1370 1369 1369 1369 1368 1368 1367 1366 1364 1362 1360 1358 1356 1353 1351 1349 1346 1344 1341 1339 1337 1335 1333 1332 1330 1328 1327 1325 1323 1322 1320 1319 1318 1317 1316 1316 1316 1316 1317 1318 1319 1320
1365 1364 1365 1362 1363 1363 1363 1361 1360 1359 1357 1356 1355 1353 1350 1348 1346 1343 1341 1338 1336 1335 1333 1331 1329 1327 1326 1324 1323 1321 1319 1317 1316 1315 1314 1313 1312 1312 1312 1313 1313 1314 1315 1317
1360 1359 1359 1356 1356 1356 1356 1355 1354 1353 1351 1350 1348 1347 1345 1343 1341 1339 1336 1334 1332 1330 1328 1326 1324 1323 1322 1320 1319 1317 1316 1314 1312 1311 1310 1309 1309 1308 1308 1308 1309 1310 1311 1312
1354 1354 1352 1351 1350 1349 1349 1348 1347 1346 1345 1344 1342 1341 1339 1337 1336 1333 1331 1329 1328 1326 1324 1322 1320 1319 1317 1316 1315 1313 1312 1311 1309 1308 1307 1306 1306 1306 1305 1305 1305 1305 1307 1308
1348 1347 1346 1345 1344 1343 1343 1342 1341 1339 1338 1337 1337 1335 1334 1332 1330 1328 1327 1325 1323 1321 1319 1318 1316 1315 1314 1312 1311 1309 1308 1307 1306 1304 1304 1303 1303 1302 1302 1302 1302 1303 1304 1305
1341 1341 1340 1340 1339 1338 1337 1336 1335 1334 1333 1332 1331 1330 1328 1327 1325 1324 1322 1321 1319 1317 1316 1314 1312 1311 1310 1308 1307 1305 1304 1303 1302 1301 1300 1300 1299 1299 1299 1299 1300 1300 1301 1302
1336 1335 1335 1334 1334 1333 1332 1332 1331 1329 1328 1327 1326 1325 1323 1322 1321 1319 1318 1317 1315 1313 1312 1311 1309 1308 1306 1305 1304 1302 1301 1300 1299 1298 1297 1297 1297 1297 1296 1297 1297 1298 1299 1300
1332 1331 1331 1330 1329 1328 1328 1327 1326 1325 1324 1323 1321 1320 1319 1318 1316 1315 1314 1313 1311 1310 1308 1307 1306 1304 1303 1301 1300 1299 1298 1297 1296 1295 1294 1294 1294 1294 1294 1294 1295 1296 1297 1299
1327 1327 1327 1326 1325 1324 1323 1322 1321 1320 1319 1318 1317 1316 1315 1314 1313 1312 1310 1309 1307 1305 1304 1303 1302 1301 1299 1298 1297 1296 1295 1294 1293 1292 1292 1292 1291 1292 1292 1292 1293 1294 1295 1297
1324 1324 1323 1322 1321 1321 1319 1318 1317 1316 1315 1314 1313 1312 1311 1310 1309 1308 1307 1305 1303 1302 1301 1300 1298 1297 1296 1295 1295 1294 1292 1291 1291 1290 1289 1289 1289 1290 1290 1291 1292 1293 1294 1295
1322 1321 1320 1319 1318 1317 1316 1315 1313 1312 1311 1310 1309 1308 1307 1306 1306 1304 1303 1301 1300 1299 1298 1296 1295 1294 1293 1292 1292 1291 1290 1289 1288 1288 1287 1287 1288 1288 1288 1289 1290 1291 1292 1293
1320 1319 1318 1317 1315 1314 1313 1312 1310 1309 1308 1307 1306 1305 1304 1303 1302 1301 1300 1299 1297 1296 1295 1293 1292 1292 1291 1290 1289 1288 1287 1286 1286 1286 1286 1286 1286 1286 1287 1288 1289 1289 1290 1292
1318 1317 1316 1315 1313 1311 1310 1309 1308 1306 1305 1304 1303 1302 1301 1300 1299 1298 1296 1295 1294 1293 1292 1291 1290 1289 1288 1287 1286 1285 1285 1284 1284 1284 1284 1284 1284 1285 1285 1286 1287 1288 1289 1291
1316 1315 1313 1312 1311 1309 1307 1306 1305 1303 1302 1301 1300 1299 1298 1297 1296 1295 1294 1293 1292 1291 1289 1288 1287 1286 1285 1285 1284 1284 1283 1283 1282 1282 1282 1283 1283 1284 1284 1285 1286 1287 1288 1289
1313 1312 1311 1310 1308 1306 1305 1304 1302 1301 1299 1298 1297 1296 1296 1295 1294 1293 1292 1291 1290 1288 1287 1286 1285 1284 1283 1283 1282 1282 1282 1281 1281 1281 1281 1282 1282 1282 1283 1284 1285 1285 1287 1288
1311 1310 1309 1307 1306 1304 1303 1301 1300 1298 1297 1296 1295 1294 1293 1293 1292 1291 1290 1289 1288 1287 1285 1284 1283 1283 1282 1282 1281 1281 1280 1280 1280 1280 1280 1280 1281 1281 1282 1283 1284 1284 1286 1287
1308 1307 1306 1304 1303 1302 1301 1299 1298 1296 1295 1294 1293 1292 1291 1290 1289 1289 1288 1287 1286 1285 1284 1283 1282 1282 1281 1281 1280 1279 1279 1279 1279 1279 1279 1279 1280 1280 1281 1282 1283 1284 1285 1287